{"data":{"norad_id":59902,"intl_designator":"2024-100T","name":"STARLINK-31914","alt_names":[],"object_type":"PAYLOAD","status":"ACTIVE","operator":null,"country":"US","launch_date":"2024-05-28","launch_site_code":"AFETR","launch_vehicle":null,"mission":null,"orbit_class":"UNKNOWN","rcs_meters":null,"size_class":null,"mass_kg":null,"dimensions":null,"purposes":["comms"],"wikipedia_slug":null,"has_3d_model":false,"image_url":null,"decayed_at":null,"tle_current":{"epoch":"2026-05-25T02:57:15.308640Z","epoch_age_seconds":61078,"freshness":"FRESH","line1":"1 59902U 24100T   26145.12309385 -.00000004  00000+0  93604-5 0  9992","line2":"2 59902  43.0029  53.9749 0001152 277.4561  82.6160 15.27582988112735","mean_motion":15.27582988,"eccentricity":0.0001152,"inclination_deg":43.0029,"raan_deg":53.9749,"arg_perigee_deg":277.4561,"mean_anomaly_deg":82.616,"bstar":9.3604e-6,"rev_number":11273,"period_min":94.266564324949,"perigee_km":482.24974129976,"apogee_km":483.83055651486,"semimajor_km":6861.1771489073,"source":"CELESTRAK","updated_at":"2026-05-25T13:38:19.119843Z"}}}